TimePDT,TemperatureF,Dew PointF,Humidity,Sea Level PressureIn,VisibilityMPH,Wind Direction,Wind SpeedMPH,Gust SpeedMPH,PrecipitationIn,Events,Conditions,WindDirDegrees,DateUTC
12:52 AM,93.0,54.0,27,29.81,10.0,South,5.8,-,N/A,,Clear,190,2013-06-28 07:52:00
1:52 AM,91.9,53.1,27,29.80,10.0,SSW,5.8,-,N/A,,Clear,200,2013-06-28 08:52:00
2:52 AM,86.0,55.9,36,29.79,10.0,Calm,Calm,-,N/A,,Clear,0,2013-06-28 09:52:00
3:52 AM,84.9,50.0,30,29.79,10.0,NNW,4.6,-,N/A,,Clear,330,2013-06-28 10:52:00
4:52 AM,84.9,50.0,30,29.79,10.0,NNW,6.9,-,N/A,,Clear,330,2013-06-28 11:52:00
5:52 AM,84.0,52.0,33,29.80,10.0,North,5.8,-,N/A,,Clear,360,2013-06-28 12:52:00
6:52 AM,87.1,53.1,31,29.82,10.0,NW,3.5,-,N/A,,Clear,320,2013-06-28 13:52:00
7:52 AM,93.0,54.0,27,29.82,10.0,North,4.6,-,N/A,,Clear,350,2013-06-28 14:52:00
8:52 AM,98.1,51.1,20,29.83,10.0,Calm,Calm,-,N/A,,Clear,0,2013-06-28 15:52:00
9:52 AM,102.9,50.0,17,29.82,10.0,Variable,3.5,-,N/A,,Clear,0,2013-06-28 16:52:00
10:52 AM,107.1,48.9,14,29.81,10.0,Calm,Calm,-,N/A,,Clear,0,2013-06-28 17:52:00
11:52 AM,111.0,48.0,12,29.78,10.0,Calm,Calm,-,N/A,,Clear,0,2013-06-28 18:52:00
12:52 PM,111.0,51.1,14,29.76,10.0,ESE,4.6,-,N/A,,Clear,110,2013-06-28 19:52:00
1:52 PM,115.0,48.9,11,29.72,10.0,South,10.4,18.4,N/A,,Clear,180,2013-06-28 20:52:00
2:52 PM,117.0,46.9,10,29.69,10.0,SSE,11.5,-,N/A,,Clear,160,2013-06-28 21:52:00
3:52 PM,118.0,37.9,7,29.65,10.0,WSW,11.5,18.4,N/A,,Partly Cloudy,240,2013-06-28 22:52:00
4:52 PM,118.9,37.0,6,29.64,10.0,WSW,16.1,-,N/A,,Scattered Clouds,250,2013-06-28 23:52:00
5:52 PM,118.9,37.9,7,29.61,10.0,West,12.7,-,N/A,,Scattered Clouds,260,2013-06-29 00:52:00
6:52 PM,117.0,37.0,7,29.62,10.0,WSW,9.2,-,N/A,,Partly Cloudy,240,2013-06-29 01:52:00
7:52 PM,113.0,39.0,8,29.62,10.0,WSW,6.9,-,N/A,,Partly Cloudy,240,2013-06-29 02:52:00
8:52 PM,109.9,39.0,9,29.65,10.0,WSW,9.2,-,N/A,,Clear,250,2013-06-29 03:52:00
9:52 PM,107.1,39.9,10,29.65,10.0,WSW,13.8,-,N/A,,Clear,250,2013-06-29 04:52:00
10:52 PM,104.0,39.9,11,29.65,10.0,WSW,12.7,-,N/A,,Clear,250,2013-06-29 05:52:00
11:52 PM,102.0,41.0,12,29.64,10.0,WSW,11.5,-,N/A,,Clear,250,2013-06-29 06:52:00